When you browse on this site, cookies collect data to enhance your experience and personalize the content and advertising you see.
Visit our Privacy Policy to learn more. By continuing to use the site, you agree to this use of cookies and data.
  • In Österreich
  • Länderverzeichnis
  • Für 7 Tage
  • Wassertemperatur
  • Satellitenkarten
  • Wetterkarte
  • News
  • Widgets
  • user-avatar
    Anmelden

    Stündliche Wetter Kozakova Balka

    Heute, 20 Februar, Mittwoch

    Zeit Temperatur Niederschläge Wind Luftdruck Luftfeuchtigkeit
    00:00 -2°C° 0 mm 5 m/S 748 mmHg 82%
    01:00 -2°C° 0 mm 5 m/S 747 mmHg 84%
    02:00 -2°C° 0 mm 5 m/S 747 mmHg 86%
    03:00 -2°C° 0 mm 5 m/S 747 mmHg 87%
    04:00 -2°C° 0 mm 5 m/S 746 mmHg 89%
    05:00 -2°C° 0 mm 5 m/S 746 mmHg 91%
    06:00 -1°C° 0 mm 5 m/S 745 mmHg 92%
    07:00 -1°C° 0 mm 5 m/S 745 mmHg 93%
    08:00 0°C° 0 mm 5 m/S 745 mmHg 94%
    09:00 +1°C° 0 mm 5 m/S 744 mmHg 91%
    10:00 +1°C° 0 mm 5 m/S 744 mmHg 88%
    11:00 +2°C° 0 mm 5 m/S 744 mmHg 85%
    12:00 +4°C° 0 mm 4 m/S 744 mmHg 83%
    13:00 +5°C° 0 mm 4 m/S 744 mmHg 81%
    14:00 +5°C° 0 mm 4 m/S 744 mmHg 79%
    15:00 +5°C° 0.1 mm 4 m/S 744 mmHg 82%
    16:00 +4°C° 0.1 mm 3 m/S 744 mmHg 85%
    17:00 +4°C° 0.1 mm 3 m/S 744 mmHg 88%
    18:00 +3°C° 0 mm 3 m/S 744 mmHg 88%
    19:00 +2°C° 0 mm 3 m/S 744 mmHg 88%
    20:00 +2°C° 0 mm 3 m/S 745 mmHg 87%
    21:00 +2°C° 0 mm 3 m/S 745 mmHg 85%
    22:00 +2°C° 0 mm 3 m/S 745 mmHg 84%
    23:00 +2°C° 0 mm 3 m/S 745 mmHg 82%

    Morgen, 21 Februar, Donnerstag

    Zeit Temperatur Niederschläge Wind Luftdruck Luftfeuchtigkeit
    00:00 +1°C° 0 mm 4 m/S 745 mmHg 81%
    01:00 +1°C° 0 mm 4 m/S 745 mmHg 80%
    02:00 +1°C° 0 mm 5 m/S 745 mmHg 78%
    03:00 +1°C° 0 mm 5 m/S 745 mmHg 79%
    04:00 -1°C° 0 mm 6 m/S 744 mmHg 79%
    05:00 -1°C° 0 mm 6 m/S 744 mmHg 80%
    06:00 -1°C° 0 mm 6 m/S 744 mmHg 81%
    07:00 -1°C° 0 mm 6 m/S 745 mmHg 82%
    08:00 -2°C° 0 mm 6 m/S 745 mmHg 84%
    09:00 -1°C° 0 mm 7 m/S 745 mmHg 75%
    10:00 0°C° 0 mm 8 m/S 745 mmHg 67%
    11:00 +1°C° 0 mm 9 m/S 745 mmHg 58%
    12:00 +1°C° 0 mm 9 m/S 745 mmHg 56%
    13:00 +1°C° 0 mm 9 m/S 745 mmHg 53%
    14:00 +2°C° 0 mm 9 m/S 745 mmHg 50%
    15:00 +2°C° 0 mm 7 m/S 745 mmHg 53%
    16:00 +1°C° 0 mm 6 m/S 745 mmHg 55%
    17:00 +1°C° 0 mm 5 m/S 746 mmHg 57%
    18:00 0°C° 0 mm 4 m/S 746 mmHg 61%
    19:00 +1°C° 0 mm 3 m/S 746 mmHg 64%
    20:00 +1°C° 0 mm 2 m/S 746 mmHg 68%
    21:00 +1°C° 0 mm 2 m/S 746 mmHg 68%
    22:00 +1°C° 0 mm 2 m/S 746 mmHg 68%
    23:00 +1°C° 0 mm 1 m/S 746 mmHg 69%

    übermorgen, 22 Februar, Freitag

    Zeit Temperatur Niederschläge Wind Luftdruck Luftfeuchtigkeit
    00:00 +1°C° 0.1 mm 1 m/S 746 mmHg 69%
    01:00 +1°C° 0.1 mm 1 m/S 745 mmHg 69%
    02:00 +1°C° 0.1 mm 1 m/S 745 mmHg 69%
    03:00 +1°C° 0.4 mm 1 m/S 745 mmHg 76%
    04:00 -2°C° 0.4 mm 2 m/S 744 mmHg 83%
    05:00 -4°C° 0.4 mm 3 m/S 744 mmHg 91%
    06:00 -4°C° 0.4 mm 4 m/S 744 mmHg 89%
    07:00 -5°C° 0.4 mm 5 m/S 744 mmHg 88%
    08:00 -6°C° 0.4 mm 6 m/S 744 mmHg 87%
    09:00 -6°C° 0.3 mm 6 m/S 745 mmHg 84%
    10:00 -7°C° 0.3 mm 7 m/S 745 mmHg 82%
    11:00 -8°C° 0.3 mm 7 m/S 746 mmHg 79%
    12:00 -8°C° 0.1 mm 8 m/S 746 mmHg 75%
    13:00 -10°C° 0.1 mm 8 m/S 747 mmHg 71%
    14:00 -10°C° 0.1 mm 9 m/S 747 mmHg 67%
    15:00 -11°C° 0 mm 9 m/S 748 mmHg 67%
    16:00 -11°C° 0 mm 8 m/S 749 mmHg 66%
    17:00 -12°C° 0 mm 8 m/S 749 mmHg 66%
    18:00 -12°C° 0 mm 8 m/S 750 mmHg 66%
    19:00 -12°C° 0 mm 8 m/S 751 mmHg 65%
    20:00 -14°C° 0 mm 9 m/S 751 mmHg 65%
    21:00 -13°C° 0 mm 8 m/S 752 mmHg 64%
    22:00 -12°C° 0 mm 8 m/S 752 mmHg 64%
    23:00 -12°C° 0 mm 7 m/S 752 mmHg 64%

    23 Februar, Samstag

    Zeit Temperatur Niederschläge Wind Luftdruck Luftfeuchtigkeit
    00:00 -12°C° 0 mm 7 m/S 752 mmHg 64%
    01:00 -13°C° 0 mm 7 m/S 752 mmHg 64%
    02:00 -12°C° 0 mm 6 m/S 753 mmHg 65%
    03:00 -12°C° 0 mm 6 m/S 753 mmHg 67%
    04:00 -12°C° 0 mm 6 m/S 753 mmHg 69%
    05:00 -12°C° 0 mm 6 m/S 753 mmHg 71%
    06:00 -13°C° 0 mm 7 m/S 753 mmHg 70%
    07:00 -13°C° 0 mm 7 m/S 754 mmHg 69%
    08:00 -13°C° 0 mm 7 m/S 754 mmHg 68%
    09:00 -13°C° 0 mm 7 m/S 754 mmHg 67%
    10:00 -12°C° 0 mm 7 m/S 755 mmHg 65%
    11:00 -12°C° 0 mm 7 m/S 755 mmHg 63%
    12:00 -12°C° 0 mm 7 m/S 755 mmHg 62%
    13:00 -10°C° 0 mm 6 m/S 754 mmHg 61%
    14:00 -10°C° 0 mm 6 m/S 754 mmHg 60%
    15:00 -10°C° 0 mm 6 m/S 754 mmHg 62%
    16:00 -10°C° 0 mm 6 m/S 754 mmHg 63%
    17:00 -11°C° 0 mm 6 m/S 754 mmHg 65%
    18:00 -11°C° 0 mm 5 m/S 754 mmHg 66%
    19:00 -11°C° 0 mm 5 m/S 755 mmHg 68%
    20:00 -11°C° 0 mm 5 m/S 755 mmHg 70%
    21:00 -11°C° 0 mm 4 m/S 755 mmHg 71%
    22:00 -11°C° 0 mm 4 m/S 755 mmHg 72%
    23:00 -10°C° 0 mm 3 m/S 754 mmHg 74%

    24 Februar, Sonntag

    Zeit Temperatur Niederschläge Wind Luftdruck Luftfeuchtigkeit
    00:00 -10°C° 0 mm 3 m/S 754 mmHg 76%
    01:00 -10°C° 0 mm 3 m/S 754 mmHg 78%
    02:00 -12°C° 0 mm 3 m/S 754 mmHg 80%
    03:00 -12°C° 0 mm 3 m/S 754 mmHg 81%
    04:00 -12°C° 0 mm 3 m/S 754 mmHg 81%
    05:00 -12°C° 0 mm 3 m/S 754 mmHg 82%
    06:00 -12°C° 0 mm 4 m/S 754 mmHg 81%
    07:00 -11°C° 0 mm 4 m/S 754 mmHg 79%
    08:00 -11°C° 0 mm 4 m/S 754 mmHg 77%
    09:00 -12°C° 0 mm 5 m/S 755 mmHg 75%
    10:00 -11°C° 0 mm 5 m/S 755 mmHg 72%
    11:00 -11°C° 0 mm 5 m/S 755 mmHg 69%
    12:00 -10°C° 0 mm 5 m/S 755 mmHg 68%
    13:00 -10°C° 0 mm 5 m/S 755 mmHg 67%
    14:00 -8°C° 0 mm 5 m/S 754 mmHg 66%
    15:00 -10°C° 0 mm 5 m/S 755 mmHg 67%
    16:00 -10°C° 0 mm 5 m/S 755 mmHg 68%
    17:00 -10°C° 0 mm 5 m/S 755 mmHg 69%
    18:00 -10°C° 0 mm 5 m/S 755 mmHg 72%
    19:00 -11°C° 0 mm 5 m/S 755 mmHg 75%
    20:00 -10°C° 0 mm 4 m/S 755 mmHg 77%
    21:00 -10°C° 0 mm 4 m/S 755 mmHg 77%
    22:00 -10°C° 0 mm 4 m/S 755 mmHg 77%
    23:00 -10°C° 0 mm 4 m/S 755 mmHg 77%

    25 Februar, Montag

    Zeit Temperatur Niederschläge Wind Luftdruck Luftfeuchtigkeit
    00:00 -10°C° 0 mm 4 m/S 755 mmHg 77%
    01:00 -10°C° 0 mm 4 m/S 755 mmHg 78%
    02:00 -10°C° 0 mm 4 m/S 754 mmHg 78%
    03:00 -11°C° 0 mm 4 m/S 754 mmHg 78%
    04:00 -11°C° 0 mm 4 m/S 754 mmHg 79%
    05:00 -11°C° 0 mm 4 m/S 753 mmHg 80%
    06:00 -12°C° 0 mm 5 m/S 753 mmHg 79%
    07:00 -12°C° 0 mm 5 m/S 753 mmHg 77%
    08:00 -12°C° 0 mm 5 m/S 753 mmHg 76%
    09:00 -12°C° 0 mm 5 m/S 753 mmHg 74%
    10:00 -11°C° 0 mm 5 m/S 752 mmHg 71%
    11:00 -10°C° 0 mm 4 m/S 752 mmHg 69%
    12:00 -9°C° 0.1 mm 4 m/S 751 mmHg 68%
    13:00 -9°C° 0.1 mm 4 m/S 751 mmHg 68%
    14:00 -9°C° 0.1 mm 4 m/S 750 mmHg 67%
    15:00 -9°C° 0 mm 4 m/S 750 mmHg 69%
    16:00 -9°C° 0 mm 4 m/S 749 mmHg 70%
    17:00 -9°C° 0 mm 4 m/S 749 mmHg 72%
    18:00 -10°C° 0 mm 4 m/S 749 mmHg 74%
    19:00 -10°C° 0 mm 4 m/S 749 mmHg 76%
    20:00 -10°C° 0 mm 4 m/S 749 mmHg 78%
    21:00 -11°C° 0 mm 4 m/S 749 mmHg 78%
    22:00 -12°C° 0 mm 5 m/S 749 mmHg 77%
    23:00 -12°C° 0 mm 5 m/S 749 mmHg 77%
    Mehr zeigen